Weather Roundup
Issued by NWS Chicago, IL

Home | Current Version | Previous Version | Graphics & Text | Print | Product List | Glossary On
Versions: 1 2 3 4 5 6 7 8 9 10 11 12 13 14 15 16 17 18 19 20 21 22 23 24 25 26 27 28 29 30 31 32 33 34 35 36 37 38 39 40 41 42 43 44 45 46 47 48 49 50
250
NZUS59 KLOT 241004
HRRLOT

CHICAGO AREA WEATHER ROUNDUP
NATIONAL WEATHER SERVICE CHICAGO/ROMEOVILLE IL
500 AM CDT WED MAY 24 2017

NOTE: "FAIR" INDICATES FEW OR NO CLOUDS BELOW 12,000 FEET WITH NO
SIGNIFICANT WEATHER AND/OR OBSTRUCTIONS TO VISIBILITY.

* THESE STATIONS ARE NOT UNDER NWS QUALITY CONTROL. THEY ALSO MAY NOT
  REPORT WEATHER SUCH AS PRECIPITATION OR FOG.

ILZ005-006-012>014-019>023-241100-
NORTHEAST ILLINOIS

CITY           SKY/WX    TMP DP  RH WIND       PRES   REMARKS
OHARE          LGT RAIN  53  51  93 NE7       29.60F
MIDWAY         LGT RAIN  55  54  96 NE12      29.59F FOG
AURORA         CLOUDY    56  54  93 NE5       29.60F FOG
LANSING*       LGT RAIN  54  54 100 N7        29.59F
JOLIET*        CLOUDY    56  56  99 NE6       29.58F FOG
WAUKEGAN       LGT RAIN  50  50 100 NE6       29.62F FOG
DUPAGE AIRPORT LGT RAIN  53  53 100 NE10      29.59F FOG
WHEELING       LGT RAIN  51  51 100 N6        29.62F
MORRIS*        CLOUDY    55  54  97 CALM      29.58F FOG
LEWIS AIRPORT* CLOUDY    54  54 100 NE13      29.58F
NORTHERLY ISL    N/A     54  52  93 MISG        N/A
$$

WIZ051-052-058>065-066-070>072-241100-
SOUTHEAST WISCONSIN

CITY           SKY/WX    TMP DP  RH WIND       PRES   REMARKS
MILWAUKEE      LGT RAIN  48  47  96 N10       29.65S VSB 1
KENOSHA*       LGT RAIN  50  48  93 NE6       29.63F FOG
RACINE*        RAIN      47  46  97 N7        29.66F FOG
$$

INZ001>003-010>013-019-020-241100-
NORTHWEST INDIANA

CITY           SKY/WX    TMP DP  RH WIND       PRES   REMARKS
GARY*          LGT RAIN  55  54  94 N8        29.60F
MICHIGAN CITY* NOT AVBL
RENSSELAER*    NOT AVBL
VALPARAISO     CLOUDY    57  55  93 N6        29.57F FOG
$$

LMZ740>746-241100-
SOUTHERN LAKE MICHIGAN

STATION/POSITION TIME  SKY/WX   TEMP WIND        PRES    VSBY
                                AIR  DIR/SP/G
                 (UTC)          (F)  (DEG/KT/KT) (MB)    (MI)
HARRISON CRIB    0940            53  350/ 15/ 15   N/A
BURNHAM HARBOR   1000            54  330/  9/ 14   N/A
CALUMET HARBOR   0930            53  330/  8/ 12 1002.2F
BURNS HARBOR     0940            51  360/ 14/ 17 1002.4F
MICHIGAN CITY    0940            53  320/ 13/ 15   N/A
$$

ABBREVIATIONS USED IN REMARKS
   TC - TEMPERATURE IN CELSIUS
  WCI - WIND CHILL INDEX
   HX - HEAT INDEX
  VSB - VISIBILITY
$$




USA.gov is the U.S. government's official web portal to all federal, state and local government web resources and services.